Change the Weather History Date:

Sunday, June 23, 2013

  Actual Average Record
Temperature  
Mean Temperature 78 °F 77 °F  
Max Temperature 93 °F 90 °F 101 °F (1980)
Min Temperature 62 °F 64 °F 44 °F (1916)
Degree Days  
Heating Degree Days 0 0  
Month to date heating degree days 0 0  
Since 1 June heating degree days 0 0  
Since 1 July heating degree days 3894 4175  
Cooling Degree Days 13 12  
Month to date cooling degree days 329 212  
Year to date cooling degree days 446 310  
Since 1 June cooling degree days 329 212  
Growing Degree Days 28 (Base 50)    
Moisture  
Dew Point 13 °F    
Average Humidity 9    
Maximum Humidity 12    
Minimum Humidity 5    
Precipitation  
Precipitation 0.00 in 0.03 in 0.78 in (1940)
Month to date precipitation 0.02 0.43  
Year to date precipitation 0.70 2.97  
Snow  
Snow 0.00 in - - ()
Month to date snowfall 0.0  
Since 1 June snowfall 0.0  
Since 1 July snowfall 3.5  
Snow Depth 0.00 in    
Sea Level Pressure  
Sea Level Pressure 29.73 in    
Wind  
Wind Speed 8 mph (South)    
Max Wind Speed 22 mph    
Max Gust Speed 32 mph    
Visibility 10 miles    
Events      
T = Trace of Precipitation, MM = Missing Value Source: NWS Daily Summary

Daily Weather History Graph

Daily Weather History Graph

Search for Another Location

Airport or City:

Trip Planner

Search our weather history database for the weather conditions in past years. The results will help you decide how hot, cold, wet, or windy it might be!

Date:

Astronomy

Jun. 23, 2013 Rise Set
Actual Time 5:53 AM MDT 8:24 PM MDT
Civil Twilight 5:23 AM MDT 8:53 PM MDT
Nautical Twilight 4:46 AM MDT 9:30 PM MDT
Astronomical Twilight 4:06 AM MDT 10:11 PM MDT
Moon 8:42 PM MDT (6/23) 6:11 AM MDT (6/23)
Length of Visible Light 15h 30m
Length of Day
14h 30m
Full, 100% of the Moon is Illuminated
Jun 23
Full
Jun 29
Last Quarter
Jul 8
New
Jul 15
First Quarter
Jul 22
Full

Hourly Weather History & Observations

Time (MDT) Temp. Dew Point Humidity Pressure Visibility Wind Dir Wind Speed Gust Speed Precip Events Conditions
12:52 AM 71.1 °F 10.0 °F 9% 29.73 in 10.0 mi SE 4.6 mph - N/A   Scattered Clouds
1:52 AM 69.1 °F 9.0 °F 10% 29.74 in 10.0 mi SE 5.8 mph - N/A   Scattered Clouds
2:52 AM 66.0 °F 9.0 °F 11% 29.76 in 10.0 mi SSE 4.6 mph - N/A   Scattered Clouds
3:52 AM 66.0 °F 9.0 °F 11% 29.76 in 10.0 mi SSE 6.9 mph - N/A   Clear
4:52 AM 66.0 °F 9.0 °F 11% 29.76 in 10.0 mi SE 8.1 mph - N/A   Partly Cloudy
5:52 AM 63.0 °F 9.0 °F 12% 29.78 in 10.0 mi Calm Calm - N/A   Partly Cloudy
6:52 AM 62.6 °F 8.6 °F 12% 29.80 in 10.0 mi South 6.9 mph - N/A   Partly Cloudy
7:52 AM 69.8 °F 10.4 °F 10% 29.81 in 10.0 mi South 5.8 mph - N/A   Partly Cloudy
8:52 AM 73.9 °F 12.0 °F 9% 29.81 in 10.0 mi South 3.5 mph - N/A   Clear
9:52 AM 79.0 °F 14.0 °F 9% 29.81 in 10.0 mi South 8.1 mph - N/A   Clear
10:52 AM 81.0 °F 16.0 °F 9% 29.79 in 10.0 mi SW 5.8 mph - N/A   Clear
11:52 AM 84.0 °F 17.1 °F 8% 29.78 in 10.0 mi SW 8.1 mph - N/A   Clear
12:52 PM 86.0 °F 18.0 °F 8% 29.76 in 10.0 mi Variable 3.5 mph - N/A   Partly Cloudy
1:52 PM 88.0 °F 16.0 °F 7% 29.74 in 10.0 mi SSE 12.7 mph 18.4 mph N/A   Partly Cloudy
2:52 PM 89.1 °F 15.1 °F 6% 29.71 in 10.0 mi South 8.1 mph - N/A   Scattered Clouds
3:52 PM 91.0 °F 12.9 °F 6% 29.68 in 10.0 mi SSW 8.1 mph 18.4 mph N/A   Scattered Clouds
4:52 PM 91.9 °F 15.1 °F 6% 29.65 in 10.0 mi South 11.5 mph 25.3 mph N/A   Scattered Clouds
5:52 PM 91.9 °F 16.0 °F 6% 29.62 in 10.0 mi SE 11.5 mph 18.4 mph N/A   Scattered Clouds
6:52 PM 91.9 °F 15.1 °F 6% 29.62 in 10.0 mi South 12.7 mph 21.9 mph N/A   Scattered Clouds
7:52 PM 91.0 °F 12.9 °F 6% 29.60 in 10.0 mi South 12.7 mph - N/A   Scattered Clouds
8:52 PM 86.0 °F 12.9 °F 7% 29.62 in 10.0 mi South 8.1 mph - N/A   Scattered Clouds
9:06 PM 84.2 °F 12.2 °F 7% 29.90 in 10.0 mi South 8.1 mph - N/A   Scattered Clouds
9:52 PM 82.9 °F 10.0 °F 6% 29.63 in 10.0 mi South 10.4 mph - N/A   Scattered Clouds
10:52 PM 82.9 °F 12.0 °F 7% 29.66 in 10.0 mi SW 15.0 mph 23.0 mph N/A   Scattered Clouds
11:52 PM 77.0 °F 12.9 °F 9% 29.70 in 10.0 mi SSE 4.6 mph - N/A   Scattered Clouds